Weather Roundup
Issued by NWS

Home | Current Version | Previous Version | Graphics & Text | Print | Product List | Glossary Off
Versions: 1 2 3 4 5 6 7 8 9 10 11 12 13 14 15 16 17 18 19 20 21 22 23 24 25 26 27 28 29 30 31 32 33 34 35 36 37 38 39 40 41 42 43 44 45 46 47 48 49 50

166
NZUS93 KARX 180659
HRRWXR

CURRENT HOURLY OBSERVATIONS ACROSS
MUCH OF THE UPPER MISSISSIPPI VALLEY
NATIONAL WEATHER SERVICE LA CROSSE WI
100 AM CST MON DEC 18 2017


...SOUTHEAST MINNESOTA...


CITY           SKY/WX    TMP DP  RH WIND       PRES   REMARKS
ROCHESTER      FOG       28  27  96 W8        29.90F VSB 3/4 WCI  20
ROCHESTER/MAYO CLOUDY    29  30 100 SW6       29.92F WCI  23
WINONA         CLOUDY    30  30 100 CALM      29.95F FOG
AUSTIN         CLOUDY    27  27 100 SW3       29.90F FOG
ALBERT LEA     CLOUDY    28  27  93 SW5       29.91F FOG     WCI  23
DODGE CENTER   FOG       28  27  93 SW6       29.90F VSB 1   WCI  22
PRESTON        FOG       28  27  96 W6        29.91F VSB 3/4 WCI  21
OWATONNA       CLOUDY    28  27  93 SW5       29.90F FOG     WCI  23
FARIBAULT      CLOUDY    27  27 100 SW3       29.91F FOG
$$

...ELSEWHERE IN MINNESOTA...


CITY           SKY/WX    TMP DP  RH WIND       PRES   REMARKS
MINNEAPOLIS    CLOUDY    26  26 100 SW5       29.92F FOG     WCI  20
INTNL FALLS    CLOUDY    25  22  88 S6        29.74F FOG     WCI  18
DULUTH         CLOUDY    23  23 100 SW9       29.83F FOG     WCI  13
RED WING       CLOUDY    28  25  86 CALM      29.92F FOG
REDWOOD FALLS  CLOUDY    30  27  88 S6        29.88F WCI  24
MANKATO        CLOUDY    26  24  92 S6        29.91F FOG     WCI  19
WORTHINGTON    CLOUDY    29  27  92 SW8       29.90F WCI  21
FAIRMONT       CLOUDY    27  25  92 SW7       29.92F WCI  19
$$

...SOUTHWEST WISCONSIN...


CITY           SKY/WX    TMP DP  RH WIND       PRES   REMARKS
LA CROSSE      CLOUDY    31  28  89 W3        29.94F FOG
PRAIRIE DU CHI CLOUDY    32  28  86 NW3       29.94R FOG
BOSCOBEL       CLOUDY    33  30  88 CALM      29.94S
LONE ROCK      NOT AVBL
PLATTEVILLE    CLOUDY    33  33 100 CALM      29.93F VSB 1/2
FORT MC COY    CLOUDY    30  28  95 W6        29.94F FOG     WCI  24
MAUSTON-NEW LI CLOUDY    31  29  94 CALM      29.91F FOG
VIROQUA        CLOUDY    30  30 100 CALM      29.91S
WIS DELLS      CLOUDY    31  29  95 CALM      29.92S FOG
$$

...ELSEWHERE IN WISCONSIN...


CITY           SKY/WX    TMP DP  RH WIND       PRES   REMARKS
MILWAUKEE      DRIZZLE   35  33  92 CALM      29.93F FOG
MADISON        MIX PCPN  32  32 100 CALM      29.94R VSB 3/4
GREEN BAY      FOG       29  27  92 W3        29.92F VSB 1/2
EAU CLAIRE     NOT AVBL
BLACK RVR FLS  FOG       30  30 100 CALM      29.93F VSB 3/4
MEDFORD        FOG       25  24  96 SW6       29.87F VSB 3/4 WCI  18
WAUSAU         CLOUDY    26  26 100 W6        29.87F FOG     WCI  19
WIS RAPIDS     CLOUDY    29  28  96 SW3       29.92F FOG
MARSHFIELD     CLOUDY    27  27 100 W6        29.88F FOG     WCI  20
RICE LAKE      CLOUDY    27  26  99 CALM      29.90F FOG
$$

...NORTHEAST IOWA...


CITY           SKY/WX    TMP DP  RH WIND       PRES   REMARKS
WATERLOO       CLOUDY    30  27  88 CALM      29.94F FOG
DUBUQUE        FOG       33  33 100 SW6       29.93S VSB 1/4 WCI  28
DECORAH        CLOUDY    30  30 100 CALM      29.90F FOG
MASON CITY     CLOUDY    28  26  92 W6        29.93F FOG     WCI  22
CHARLES CITY   NOT AVBL
OELWEIN        CLOUDY    30  30 100 CALM      29.93S FOG
$$

...ELSEWHERE IN IOWA...


CITY           SKY/WX    TMP DP  RH WIND       PRES   REMARKS
DES MOINES     MOCLDY    28  25  88 SW5       29.96F FOG     WCI  23
IOWA CITY      CLOUDY    38  36  92 W10       29.98F FOG     WCI  31
FORT DODGE     FOG       22  20  92 SW3       29.94S VSB 1/4
MARSHALLTOWN   CLOUDY    27  26  96 CALM      29.94F FOG
CEDAR RAPIDS   CLOUDY    35  34  96 SW8       29.93F FOG     WCI  29
$$

...NORTHERN ILLINOIS...


CITY           SKY/WX    TMP DP  RH WIND       PRES   REMARKS
CHICAGO-OHARE  CLOUDY    41  36  82 S7        29.94F
CHICAGO-MIDWAY CLOUDY    43  39  86 SW7       29.95F
MOLINE         CLOUDY    42  41  96 SW7       29.94F FOG
ROCKFORD       LGT RAIN  36  35  96 SW3       29.95F VSB 1
PEORIA         CLOUDY    44  43  96 SW7       29.99F
$$

NOTE: "FAIR" INDICATES FEW OR NO CLOUDS BELOW 12,000 FEET WITH NO
SIGNIFICANT WEATHER AND/OR OBSTRUCTIONS TO VISIBILITY. WIND
SPEEDS ARE IN MILES-PER-HOUR.




USA.gov is the U.S. government's official web portal to all federal, state and local government web resources and services.